Location: Azul
(36.7830°S, 59.8500°W)
Time: 18:11:04
(UTC-03:00)

ISS - Pass Details

Date: 22 April 2017
Orbit: 401 x 408 km, 51.6° (Epoch: 22 October)

Event Time Altitude Azimuth Distance (km) Brightness Sun altitude
Exits shadow 06:38:07 16° 286° (WNW) 1,214 -2.0 -11.3°
Maximum altitude 06:39:08 18° 309° (NW) 1,130 -2.0 -11.1°
Drops below altitude 10° 06:41:28 10° 353° (N) 1,496 -0.9 -10.6°
Sets 06:44:00 0° 13° (NNE) 2,345 0.3 -10.1°
